Location: Clarks Summit,Pa.
(41.5000°N, 75.6000°W)
Time: 10:52:30
(UTC-04:00)

Envisat - Visible Passes

Search period start: 16 July 2018 00:00
Search period end: 26 July 2018 00:00
Orbit: 764 x 766 km, 98.2° (Epoch: 16 July)

Date Brightness Start Highest point End Pass type
(mag) Time Alt. Az. Time Alt. Az. Time Alt. Az.
17 Jul 5.5 21:20:31 10° SW 21:24:18 21° W 21:28:07 10° NW visible
19 Jul 5.9 21:48:28 10° WSW 21:50:10 12° W 21:51:52 10° WNW visible
20 Jul 5.1 21:08:49 10° SSW 21:13:03 26° W 21:17:18 10° NW visible
22 Jul 5.7 21:36:00 10° SW 21:38:51 15° W 21:41:44 10° NW visible
23 Jul 4.8 20:57:15 10° SSW 21:01:48 33° W 21:06:23 10° NNW visible
25 Jul 5.6 21:24:01 10° SW 21:27:35 19° W 21:31:10 10° NW visible
